Location: Beuerbach
(48.1459°N, 10.9174°E)
Time: 03:38:14
(UTC+00:00)

Cosmos 1455 - Pass Details

Date: 23 May 2024
Orbit: 445 x 460 km, 82.5° (Epoch: 19 June)

Event Time Altitude Azimuth Distance (km) Brightness Sun altitude
Rises 02:02:48 0° 328° (NNW) 2,459 5.9 -11.4°
Reaches altitude 10° 02:06:27 10° 288° (WNW) 1,582 4.4 -11.0°
Maximum altitude 02:07:10 11° 276° (W) 1,550 4.3 -11.0°
Drops below altitude 10° 02:07:52 10° 264° (W) 1,580 4.2 -10.9°
Enters shadow 02:07:57 10° 262° (W) 1,588 4.2 -10.9°
